QPF
0.01 0.00 0.01 0.01 0.01 0.01 0.02 0.02 0.03 0.03 0.03 0.03 0.05 0.06 0.05 0.07 0.06 0.02 0.01 0.01 0.01 0.00 0.00 0.01 0.01 0.01 0.02 0.04 0.04 0.04 0.04 0.03 0.02 0.02 0.01 0.01 0.02 0.02 0.02 0.02 0.02 0.01 0.02 0.02
0.00 0.00 0.01 0.01 0.01 0.01 0.02 0.02 0.02 0.02 0.02 0.03 0.04 0.04 0.05 0.07 0.05 0.03 0.02 0.01 0.01 0.00 0.00 0.00 0.01 0.01 0.02 0.02 0.04 0.04 0.04 0.04 0.02 0.02 0.01 0.01 0.02 0.01 0.01 0.02 0.02 0.02 0.02 0.01
0.01 0.01 0.01 0.02 0.02 0.02 0.02 0.02 0.02 0.02 0.03 0.02 0.02 0.03 0.05 0.06 0.04 0.03 0.02 0.01 0.01 0.00 0.00 0.00 0.01 0.02 0.02 0.02 0.03 0.04 0.04 0.04 0.03 0.02 0.01 0.01 0.01 0.01 0.01 0.01 0.01 0.02 0.02 0.02
0.03 0.02 0.03 0.03 0.02 0.02 0.02 0.03 0.02 0.02 0.02 0.02 0.03 0.04 0.04 0.03 0.02 0.02 0.02 0.01 0.01 0.00 0.00 0.00 0.01 0.01 0.01 0.02 0.02 0.03 0.04 0.05 0.03 0.03 0.02 0.01 0.01 0.01 0.01 0.01 0.01 0.01 0.01 0.01
0.04 0.04 0.02 0.02 0.01 0.01 0.03 0.03 0.02 0.01 0.01 0.01 0.02 0.02 0.02 0.01 0.01 0.01 0.02 0.01 0.01 0.01 0.01 0.01 0.01 0.01 0.01 0.01 0.02 0.03 0.03 0.04 0.05 0.03 0.02 0.02 0.01 0.01 0.01 0.01 0.01 0.01 0.01 0.01
0.06 0.06 0.04 0.03 0.01 0.01 0.02 0.04 0.02 0.01 0.01 0.01 0.01 0.03 0.03 0.02 0.02 0.02 0.01 0.01 0.01 0.01 0.01 0.01 0.01 0.01 0.01 0.01 0.02 0.02 0.03 0.03 0.04 0.04 0.03 0.02 0.01 0.01 0.01 0.01 0.01 0.01 0.01 0.01
0.05 0.06 0.05 0.03 0.02 0.01 0.03 0.05 0.02 0.02 0.02 0.03 0.03 0.04 0.04 0.02 0.02 0.02 0.02 0.02 0.02 0.02 0.02 0.01 0.00 0.01 0.01 0.01 0.01 0.01 0.02 0.02 0.03 0.04 0.04 0.03 0.02 0.01 0.00 0.00 0.00 0.00 0.01 0.01
0.04 0.05 0.06 0.04 0.02 0.04 0.05 0.03 0.02 0.02 0.02 0.02 0.03 0.03 0.03 0.02 0.01 0.01 0.01 0.01 0.02 0.01 0.01 0.00 0.00 0.00 0.01 0.01 0.01 0.01 0.01 0.02 0.02 0.03 0.03 0.03 0.03 0.02 0.01 0.00 0.01 0.01 0.01 0.01
0.04 0.05 0.06 0.05 0.05 0.05 0.04 0.03 0.02 0.02 0.02 0.02 0.02 0.02 0.02 0.02 0.01 0.01 0.01 0.01 0.01 0.00 0.00 0.00 0.00 0.00 0.01 0.01 0.01 0.01 0.01 0.01 0.02 0.02 0.02 0.03 0.03 0.03 0.02 0.01 0.01 0.01 0.01 0.01
0.03 0.04 0.03 0.03 0.02 0.02 0.02 0.02 0.02 0.02 0.01 0.01 0.02 0.02 0.02 0.01 0.01 0.01 0.00 0.00 0.00 0.00 0.00 0.00 0.00 0.01 0.01 0.01 0.01 0.01 0.01 0.01 0.01 0.02 0.02 0.02 0.03 0.03 0.03 0.02 0.01 0.01 0.01 0.01
0.03 0.03 0.02 0.02 0.01 0.02 0.02 0.01 0.01 0.01 0.01 0.01 0.01 0.02 0.01 0.01 0.01 0.01 0.01 0.01 0.01 0.01 0.01 0.01 0.01 0.01 0.01 0.01 0.01 0.01 0.01 0.01 0.01 0.01 0.02 0.02 0.02 0.03 0.03 0.03 0.02 0.02 0.02 0.01
0.03 0.03 0.03 0.03 0.02 0.02 0.02 0.02 0.02 0.01 0.01 0.01 0.02 0.02 0.02 0.02 0.02 0.01 0.01 0.01 0.01 0.01 0.01 0.02 0.02 0.02 0.01 0.01 0.01 0.01 0.01 0.01 0.01 0.02 0.02 0.02 0.02 0.02 0.02 0.02 0.03 0.03 0.03 0.02
0.02 0.02 0.03 0.03 0.02 0.02 0.01 0.01 0.01 0.01 0.02 0.02 0.02 0.02 0.03 0.03 0.03 0.02 0.02 0.02 0.02 0.02 0.03 0.03 0.02 0.02 0.02 0.02 0.01 0.01 0.01 0.01 0.01 0.01 0.01 0.01 0.01 0.02 0.02 0.02 0.02 0.02 0.02 0.02
0.02 0.01 0.01 0.01 0.02 0.01 0.01 0.01 0.01 0.01 0.02 0.02 0.02 0.02 0.02 0.02 0.02 0.01 0.01 0.01 0.01 0.01 0.02 0.02 0.02 0.02 0.02 0.02 0.02 0.02 0.02 0.02 0.02 0.01 0.01 0.01 0.01 0.02 0.02 0.02 0.02 0.02 0.02 0.02
0.02 0.01 0.01 0.01 0.01 0.01 0.01 0.01 0.01 0.01 0.02 0.02 0.02 0.02 0.01 0.01 0.01 0.01 0.01 0.01 0.01 0.01 0.02 0.02 0.02 0.02 0.02 0.02 0.03 0.03 0.03 0.03 0.02 0.02 0.02 0.02 0.02 0.02 0.02 0.02 0.02 0.02 0.02 0.02
0.02 0.01 0.01 0.01 0.01 0.01 0.01 0.01 0.01 0.02 0.02 0.02 0.02 0.01 0.02 0.01 0.01 0.01 0.01 0.01 0.01 0.01 0.01 0.01 0.01 0.01 0.01 0.02 0.02 0.03 0.03 0.03 0.03 0.03 0.03 0.03 0.03 0.02 0.02 0.02 0.03 0.02 0.03 0.03
0.02 0.02 0.02 0.02 0.02 0.01 0.02 0.02 0.02 0.03 0.02 0.02 0.02 0.01 0.01 0.01 0.01 0.01 0.01 0.01 0.01 0.01 0.01 0.01 0.01 0.01 0.01 0.01 0.02 0.02 0.02 0.02 0.03 0.03 0.03 0.03 0.03 0.03 0.03 0.03 0.03 0.03 0.03 0.04
0.02 0.02 0.02 0.02 0.02 0.02 0.02 0.02 0.02 0.02 0.02 0.01 0.01 0.01 0.01 0.01 0.01 0.01 0.01 0.01 0.01 0.01 0.01 0.01 0.01 0.01 0.01 0.01 0.01 0.01 0.02 0.02 0.02 0.02 0.02 0.03 0.03 0.03 0.03 0.03 0.04 0.03 0.03 0.03
0.02 0.02 0.01 0.01 0.02 0.02 0.02 0.02 0.02 0.02 0.02 0.01 0.01 0.01 0.01 0.01 0.01 0.01 0.01 0.02 0.02 0.02 0.02 0.01 0.01 0.01 0.01 0.01 0.01 0.01 0.01 0.01 0.02 0.02 0.02 0.02 0.02 0.02 0.03 0.03 0.03 0.03 0.03 0.03
0.01 0.01 0.01 0.01 0.01 0.02 0.02 0.02 0.02 0.02 0.02 0.02 0.02 0.01 0.01 0.02 0.02 0.02 0.02 0.02 0.03 0.03 0.02 0.01 0.01 0.01 0.01 0.01 0.01 0.01 0.02 0.02 0.02 0.02 0.02 0.02 0.02 0.02 0.02 0.02 0.02 0.02 0.03 0.03
0.02 0.01 0.01 0.02 0.02 0.02 0.02 0.02 0.02 0.02 0.02 0.02 0.02 0.02 0.02 0.02 0.02 0.02 0.02 0.02 0.03 0.03 0.02 0.01 0.01 0.01 0.01 0.01 0.01 0.01 0.01 0.01 0.01 0.02 0.02 0.02 0.01 0.01 0.02 0.02 0.02 0.02 0.02 0.02
0.02 0.02 0.01 0.01 0.01 0.02 0.02 0.02 0.02 0.02 0.02 0.02 0.02 0.02 0.02 0.02 0.02 0.02 0.02 0.02 0.02 0.02 0.01 0.01 0.01 0.01 0.01 0.01 0.01 0.01 0.01 0.01 0.01 0.01 0.02 0.01 0.01 0.01 0.01 0.01 0.01 0.01 0.02 0.02
0.02 0.02 0.01 0.01 0.02 0.02 0.02 0.03 0.02 0.02 0.02 0.02 0.02 0.02 0.02 0.02 0.02 0.02 0.02 0.02 0.01 0.01 0.01 0.01 0.01 0.01 0.01 0.01 0.00 0.00 0.00 0.00 0.01 0.01 0.01 0.01 0.02 0.02 0.01 0.01 0.01 0.01 0.02 0.02
0.02 0.02 0.02 0.02 0.02 0.02 0.02 0.02 0.02 0.02 0.02 0.02 0.02 0.03 0.02 0.02 0.02 0.01 0.01 0.01 0.01 0.01 0.00 0.00 0.01 0.01 0.01 0.00 0.00 0.00 0.00 0.00 0.01 0.01 0.01 0.01 0.01 0.01 0.01 0.02 0.02 0.02 0.02 0.02
0.02 0.02 0.02 0.02 0.01 0.01 0.01 0.02 0.02 0.02 0.02 0.02 0.02 0.02 0.02 0.01 0.01 0.01 0.01 0.01 0.00 0.00 0.00 0.00 0.00 0.00 0.00 0.00 0.00 0.00 0.00 0.00 0.01 0.01 0.01 0.01 0.01 0.01 0.01 0.01 0.01 0.01 0.01 0.01
0.02 0.01 0.01 0.01 0.01 0.01 0.01 0.01 0.02 0.02 0.02 0.02 0.02 0.02 0.02 0.01 0.01 0.01 0.00 0.00 0.00 0.00 0.00 0.00 0.00 0.00 0.00 0.00 0.00 0.00 0.00 0.00 0.00 0.00 0.00 0.00 0.00 0.01 0.01 0.01 0.01 0.01 0.01 0.01
0.02 0.01 0.01 0.01 0.01 0.01 0.01 0.01 0.01 0.02 0.02 0.02 0.02 0.01 0.01 0.01 0.00 0.00 0.00 0.00 0.00 0.00 0.00 0.00 0.00 0.00 0.00 0.00 0.00 0.00 0.00 0.00 0.00 0.00 0.00 0.00 0.00 0.00 0.01 0.01 0.01 0.01 0.01 0.01
MSLP
1021.76 1021.64 1021.50 1021.33 1021.11 1020.83 1020.47 1020.06 1019.62 1019.19 1018.82 1018.55 1018.45 1018.53 1018.81 1019.28 1019.90 1020.61 1021.35 1022.07 1022.70 1023.22 1023.61 1023.88 1024.05 1024.14 1024.18 1024.21 1024.24 1024.27 1024.29 1024.30 1024.27 1024.20 1024.06 1023.86 1023.60 1023.29 1022.94 1022.56 1022.15 1021.72 1021.26 1020.78
1021.43 1021.20 1020.96 1020.70 1020.43 1020.13 1019.82 1019.50 1019.21 1018.97 1018.82 1018.81 1018.95 1019.25 1019.71 1020.30 1020.99 1021.71 1022.41 1023.05 1023.58 1023.99 1024.27 1024.44 1024.52 1024.54 1024.53 1024.52 1024.51 1024.51 1024.51 1024.50 1024.45 1024.36 1024.21 1024.00 1023.74 1023.44 1023.09 1022.72 1022.32 1021.89 1021.43 1020.94
1021.24 1020.93 1020.62 1020.32 1020.03 1019.77 1019.53 1019.34 1019.22 1019.19 1019.27 1019.47 1019.82 1020.30 1020.89 1021.55 1022.25 1022.93 1023.56 1024.08 1024.49 1024.76 1024.91 1024.97 1024.96 1024.91 1024.84 1024.79 1024.75 1024.72 1024.69 1024.65 1024.57 1024.46 1024.29 1024.07 1023.81 1023.50 1023.16 1022.78 1022.39 1021.96 1021.50 1021.01
1021.24 1020.87 1020.53 1020.22 1019.97 1019.77 1019.64 1019.59 1019.63 1019.78 1020.05 1020.44 1020.94 1021.53 1022.18 1022.85 1023.51 1024.11 1024.62 1025.01 1025.28 1025.42 1025.45 1025.41 1025.32 1025.20 1025.09 1025.00 1024.92 1024.86 1024.81 1024.73 1024.64 1024.49 1024.30 1024.06 1023.78 1023.47 1023.12 1022.74 1022.34 1021.92 1021.46 1020.97
1021.42 1021.03 1020.69 1020.40 1020.20 1020.08 1020.05 1020.13 1020.32 1020.62 1021.03 1021.53 1022.11 1022.74 1023.39 1024.02 1024.60 1025.09 1025.47 1025.73 1025.86 1025.89 1025.83 1025.71 1025.56 1025.40 1025.26 1025.14 1025.04 1024.96 1024.87 1024.77 1024.64 1024.47 1024.25 1023.99 1023.68 1023.35 1022.98 1022.60 1022.19 1021.76 1021.29 1020.81
1021.77 1021.37 1021.04 1020.79 1020.65 1020.61 1020.68 1020.86 1021.15 1021.55 1022.03 1022.58 1023.18 1023.79 1024.38 1024.93 1025.40 1025.76 1026.02 1026.16 1026.19 1026.14 1026.01 1025.85 1025.68 1025.50 1025.35 1025.22 1025.11 1025.01 1024.89 1024.76 1024.59 1024.38 1024.13 1023.84 1023.51 1023.15 1022.77 1022.36 1021.94 1021.50 1021.04 1020.55
1022.23 1021.84 1021.54 1021.33 1021.24 1021.26 1021.40 1021.65 1022.01 1022.44 1022.94 1023.49 1024.05 1024.59 1025.09 1025.53 1025.88 1026.13 1026.28 1026.32 1026.29 1026.18 1026.03 1025.86 1025.69 1025.52 1025.38 1025.25 1025.13 1025.01 1024.87 1024.70 1024.49 1024.25 1023.96 1023.63 1023.28 1022.89 1022.49 1022.07 1021.63 1021.18 1020.71 1020.21
1022.77 1022.40 1022.12 1021.95 1021.89 1021.96 1022.15 1022.43 1022.80 1023.24 1023.71 1024.20 1024.69 1025.13 1025.53 1025.85 1026.08 1026.23 1026.29 1026.28 1026.21 1026.09 1025.94 1025.79 1025.63 1025.49 1025.36 1025.24 1025.11 1024.96 1024.79 1024.59 1024.35 1024.06 1023.74 1023.38 1023.00 1022.59 1022.17 1021.73 1021.29 1020.82 1020.34 1019.84
1023.35 1023.00 1022.74 1022.60 1022.58 1022.67 1022.87 1023.16 1023.51 1023.91 1024.33 1024.75 1025.14 1025.48 1025.76 1025.98 1026.12 1026.18 1026.19 1026.14 1026.05 1025.93 1025.81 1025.68 1025.55 1025.43 1025.31 1025.18 1025.04 1024.87 1024.67 1024.43 1024.14 1023.82 1023.47 1023.09 1022.68 1022.26 1021.83 1021.38 1020.92 1020.45 1019.96 1019.45
1023.96 1023.63 1023.40 1023.28 1023.27 1023.37 1023.56 1023.83 1024.15 1024.50 1024.85 1025.19 1025.49 1025.73 1025.92 1026.04 1026.10 1026.11 1026.07 1026.00 1025.91 1025.80 1025.69 1025.58 1025.47 1025.36 1025.23 1025.09 1024.92 1024.72 1024.48 1024.20 1023.88 1023.53 1023.15 1022.75 1022.34 1021.91 1021.48 1021.02 1020.56 1020.07 1019.57 1019.04
1024.59 1024.29 1024.08 1023.97 1023.97 1024.06 1024.24 1024.48 1024.76 1025.05 1025.34 1025.60 1025.82 1025.99 1026.10 1026.15 1026.16 1026.12 1026.05 1025.96 1025.86 1025.75 1025.63 1025.52 1025.40 1025.27 1025.12 1024.94 1024.74 1024.49 1024.21 1023.90 1023.55 1023.18 1022.79 1022.39 1021.98 1021.55 1021.12 1020.66 1020.19 1019.69 1019.17 1018.62
1025.27 1024.99 1024.80 1024.70 1024.70 1024.78 1024.93 1025.14 1025.37 1025.62 1025.85 1026.06 1026.22 1026.33 1026.38 1026.39 1026.35 1026.27 1026.17 1026.05 1025.92 1025.78 1025.64 1025.49 1025.32 1025.15 1024.95 1024.72 1024.47 1024.18 1023.87 1023.53 1023.16 1022.79 1022.40 1022.00 1021.60 1021.18 1020.75 1020.30 1019.82 1019.31 1018.76 1018.17
1025.98 1025.73 1025.56 1025.46 1025.45 1025.52 1025.64 1025.82 1026.01 1026.22 1026.41 1026.57 1026.69 1026.76 1026.78 1026.75 1026.67 1026.56 1026.41 1026.25 1026.07 1025.87 1025.66 1025.45 1025.22 1024.97 1024.71 1024.42 1024.11 1023.78 1023.44 1023.09 1022.72 1022.35 1021.98 1021.60 1021.21 1020.81 1020.39 1019.93 1019.44 1018.91 1018.33 1017.72
1026.71 1026.49 1026.33 1026.24 1026.22 1026.27 1026.37 1026.51 1026.67 1026.84 1027.00 1027.13 1027.22 1027.27 1027.25 1027.19 1027.08 1026.92 1026.73 1026.50 1026.24 1025.97 1025.67 1025.37 1025.05 1024.72 1024.38 1024.03 1023.68 1023.32 1022.96 1022.61 1022.25 1021.91 1021.56 1021.20 1020.84 1020.45 1020.03 1019.57 1019.06 1018.50 1017.89 1017.24
1027.43 1027.24 1027.09 1027.01 1026.97 1027.00 1027.08 1027.19 1027.32 1027.46 1027.59 1027.69 1027.76 1027.78 1027.74 1027.65 1027.49 1027.28 1027.02 1026.72 1026.38 1026.01 1025.61 1025.21 1024.79 1024.38 1023.97 1023.57 1023.18 1022.80 1022.45 1022.11 1021.78 1021.46 1021.14 1020.82 1020.47 1020.09 1019.67 1019.20 1018.67 1018.09 1017.45 1016.77
1028.09 1027.93 1027.80 1027.72 1027.68 1027.68 1027.73 1027.81 1027.91 1028.02 1028.12 1028.19 1028.23 1028.22 1028.15 1028.02 1027.82 1027.56 1027.23 1026.84 1026.41 1025.94 1025.45 1024.95 1024.45 1023.96 1023.49 1023.05 1022.64 1022.27 1021.93 1021.61 1021.32 1021.04 1020.76 1020.46 1020.13 1019.75 1019.33 1018.84 1018.29 1017.69 1017.02 1016.32
1028.66 1028.52 1028.41 1028.34 1028.29 1028.28 1028.31 1028.35 1028.41 1028.48 1028.54 1028.58 1028.58 1028.54 1028.43 1028.25 1028.00 1027.68 1027.28 1026.82 1026.31 1025.75 1025.18 1024.60 1024.02 1023.48 1022.97 1022.51 1022.10 1021.74 1021.43 1021.15 1020.89 1020.65 1020.40 1020.12 1019.80 1019.43 1018.99 1018.49 1017.92 1017.29 1016.61 1015.90
1029.09 1029.00 1028.91 1028.85 1028.81 1028.79 1028.78 1028.79 1028.81 1028.84 1028.85 1028.84 1028.79 1028.70 1028.54 1028.31 1028.01 1027.63 1027.17 1026.64 1026.06 1025.44 1024.80 1024.16 1023.55 1022.97 1022.44 1021.98 1021.58 1021.25 1020.96 1020.72 1020.50 1020.28 1020.05 1019.79 1019.47 1019.10 1018.65 1018.14 1017.55 1016.91 1016.22 1015.50
1029.40 1029.34 1029.30 1029.26 1029.23 1029.20 1029.17 1029.14 1029.11 1029.08 1029.03 1028.96 1028.85 1028.70 1028.48 1028.20 1027.85 1027.41 1026.90 1026.32 1025.69 1025.03 1024.35 1023.69 1023.05 1022.46 1021.94 1021.48 1021.10 1020.79 1020.53 1020.32 1020.12 1019.93 1019.70 1019.44 1019.13 1018.74 1018.29 1017.76 1017.17 1016.52 1015.84 1015.13
1029.61 1029.61 1029.60 1029.59 1029.57 1029.53 1029.48 1029.41 1029.33 1029.22 1029.11 1028.96 1028.79 1028.56 1028.29 1027.95 1027.54 1027.07 1026.52 1025.91 1025.26 1024.57 1023.88 1023.21 1022.57 1021.99 1021.47 1021.04 1020.68 1020.38 1020.14 1019.94 1019.75 1019.55 1019.33 1019.06 1018.73 1018.33 1017.87 1017.33 1016.74 1016.10 1015.43 1014.74
1029.78 1029.82 1029.86 1029.88 1029.87 1029.81 1029.73 1029.61 1029.47 1029.30 1029.10 1028.88 1028.62 1028.33 1028.00 1027.61 1027.16 1026.65 1026.08 1025.45 1024.79 1024.11 1023.43 1022.77 1022.14 1021.57 1021.07 1020.65 1020.29 1020.01 1019.77 1019.56 1019.36 1019.15 1018.91 1018.62 1018.27 1017.86 1017.38 1016.85 1016.26 1015.63 1014.98 1014.31
1029.96 1030.05 1030.12 1030.15 1030.13 1030.06 1029.94 1029.77 1029.55 1029.30 1029.02 1028.72 1028.39 1028.03 1027.64 1027.20 1026.72 1026.19 1025.61 1025.00 1024.35 1023.68 1023.02 1022.38 1021.77 1021.22 1020.74 1020.32 1019.96 1019.66 1019.41 1019.17 1018.95 1018.70 1018.43 1018.11 1017.74 1017.31 1016.82 1016.28 1015.71 1015.10 1014.48 1013.84
1030.20 1030.31 1030.39 1030.42 1030.38 1030.27 1030.09 1029.85 1029.56 1029.24 1028.88 1028.50 1028.10 1027.68 1027.24 1026.77 1026.27 1025.73 1025.17 1024.57 1023.94 1023.31 1022.67 1022.06 1021.48 1020.94 1020.46 1020.04 1019.67 1019.35 1019.06 1018.79 1018.51 1018.23 1017.91 1017.55 1017.15 1016.69 1016.20 1015.66 1015.10 1014.51 1013.92 1013.32
1030.51 1030.62 1030.68 1030.68 1030.59 1030.42 1030.17 1029.86 1029.49 1029.08 1028.65 1028.20 1027.75 1027.28 1026.81 1026.33 1025.82 1025.30 1024.75 1024.18 1023.59 1022.99 1022.40 1021.81 1021.25 1020.73 1020.25 1019.82 1019.42 1019.06 1018.73 1018.41 1018.08 1017.74 1017.37 1016.97 1016.53 1016.05 1015.55 1015.01 1014.46 1013.90 1013.33 1012.77
1030.87 1030.95 1030.96 1030.89 1030.72 1030.48 1030.15 1029.75 1029.31 1028.83 1028.34 1027.84 1027.34 1026.85 1026.37 1025.88 1025.39 1024.89 1024.38 1023.85 1023.30 1022.75 1022.19 1021.63 1021.10 1020.58 1020.10 1019.65 1019.22 1018.82 1018.44 1018.06 1017.68 1017.28 1016.86 1016.41 1015.93 1015.43 1014.91 1014.37 1013.83 1013.29 1012.76 1012.23
1031.25 1031.25 1031.18 1031.01 1030.76 1030.42 1030.00 1029.53 1029.01 1028.48 1027.94 1027.41 1026.90 1026.41 1025.93 1025.46 1025.00 1024.54 1024.07 1023.58 1023.08 1022.56 1022.04 1021.52 1021.00 1020.49 1020.00 1019.53 1019.08 1018.64 1018.21 1017.77 1017.33 1016.88 1016.40 1015.91 1015.39 1014.86 1014.33 1013.79 1013.25 1012.73 1012.23 1011.75
1031.58 1031.48 1031.29 1031.02 1030.66 1030.23 1029.73 1029.19 1028.63 1028.06 1027.50 1026.96 1026.46 1025.98 1025.53 1025.09 1024.67 1024.25 1023.82 1023.38 1022.92 1022.45 1021.96 1021.46 1020.96 1020.46 1019.96 1019.48 1018.99 1018.52 1018.04 1017.56 1017.07 1016.56 1016.04 1015.50 1014.95 1014.40 1013.84 1013.30 1012.77 1012.27 1011.79 1011.35
Thickness
5415 5423 5423 5427 5431 5433 5432 5434 5435 5441 5442 5445 5445 5446 5445 5445 5446 5448 5448 5447 5447 5446 5444 5445 5446 5447 5449 5450 5452 5454 5456 5457 5458 5459 5459 5460 5460 5462 5463 5464 5465 5466 5467 5468
5402 5414 5415 5417 5420 5423 5426 5428 5428 5430 5429 5433 5434 5432 5432 5432 5434 5435 5435 5436 5435 5435 5434 5434 5435 5436 5437 5439 5441 5443 5444 5446 5447 5448 5449 5449 5450 5451 5453 5454 5455 5456 5457 5457
5388 5398 5402 5401 5405 5410 5411 5411 5414 5416 5416 5418 5419 5420 5418 5420 5422 5422 5423 5424 5424 5423 5423 5424 5425 5426 5427 5428 5430 5431 5433 5434 5436 5437 5438 5438 5440 5440 5442 5443 5444 5445 5446 5447
5374 5381 5382 5394 5400 5400 5399 5396 5397 5399 5401 5403 5405 5405 5406 5407 5408 5408 5410 5410 5411 5411 5412 5413 5414 5415 5417 5418 5419 5420 5421 5423 5424 5425 5426 5427 5428 5429 5430 5432 5433 5434 5435 5436
5364 5366 5377 5385 5386 5384 5384 5384 5383 5385 5389 5391 5392 5396 5395 5395 5396 5396 5397 5398 5399 5400 5401 5401 5402 5404 5406 5407 5408 5409 5410 5412 5413 5415 5415 5416 5417 5418 5419 5420 5422 5423 5424 5424
5354 5360 5367 5368 5372 5376 5378 5372 5370 5372 5375 5377 5381 5382 5383 5384 5384 5385 5386 5386 5387 5387 5388 5389 5390 5392 5394 5395 5396 5397 5399 5401 5402 5404 5405 5406 5406 5408 5408 5409 5410 5412 5412 5413
5340 5343 5349 5351 5357 5367 5360 5357 5359 5360 5362 5365 5365 5368 5369 5371 5373 5374 5374 5375 5376 5376 5376 5377 5378 5380 5381 5383 5384 5386 5387 5389 5390 5392 5394 5395 5396 5397 5398 5398 5399 5400 5401 5401
5327 5327 5334 5339 5343 5343 5343 5345 5347 5349 5350 5352 5354 5356 5358 5360 5361 5361 5362 5363 5364 5364 5364 5365 5367 5368 5369 5370 5372 5374 5376 5377 5378 5380 5382 5384 5385 5386 5387 5387 5388 5388 5389 5390
5320 5322 5323 5324 5326 5329 5331 5332 5334 5336 5338 5341 5342 5344 5346 5347 5347 5348 5350 5350 5351 5352 5352 5352 5354 5355 5356 5358 5360 5362 5364 5365 5366 5368 5371 5372 5374 5375 5376 5376 5377 5378 5379 5380
5309 5311 5312 5312 5314 5317 5319 5321 5323 5325 5327 5329 5331 5332 5333 5334 5335 5336 5337 5338 5339 5339 5339 5339 5340 5341 5342 5345 5348 5349 5351 5352 5354 5356 5358 5360 5362 5363 5364 5365 5365 5366 5367 5368
5299 5300 5302 5305 5304 5307 5309 5310 5312 5313 5315 5317 5319 5320 5321 5321 5322 5323 5325 5325 5326 5326 5327 5327 5328 5329 5330 5332 5335 5337 5338 5340 5342 5344 5346 5348 5349 5350 5352 5353 5354 5355 5356 5357
5288 5291 5290 5293 5294 5296 5298 5299 5300 5301 5303 5305 5307 5308 5309 5309 5310 5311 5312 5313 5314 5314 5315 5316 5316 5317 5319 5321 5323 5324 5327 5328 5330 5332 5333 5335 5337 5338 5340 5342 5344 5345 5346 5347
5281 5284 5283 5284 5284 5285 5286 5289 5290 5291 5292 5294 5295 5297 5298 5298 5299 5299 5300 5301 5302 5303 5304 5305 5305 5306 5307 5309 5311 5313 5314 5316 5318 5320 5321 5323 5324 5326 5328 5330 5332 5333 5335 5336
5272 5273 5274 5275 5274 5275 5277 5279 5280 5281 5282 5284 5285 5287 5287 5287 5288 5288 5289 5290 5292 5292 5293 5294 5295 5295 5296 5298 5299 5301 5302 5304 5306 5307 5309 5310 5312 5313 5315 5317 5319 5320 5322 5325
5263 5263 5263 5264 5265 5266 5268 5269 5270 5270 5272 5273 5275 5276 5277 5277 5277 5278 5279 5281 5282 5282 5283 5284 5285 5285 5286 5287 5289 5290 5291 5293 5295 5296 5297 5299 5301 5302 5304 5305 5306 5308 5310 5312
5254 5255 5255 5256 5256 5257 5257 5259 5260 5261 5262 5263 5265 5266 5267 5267 5267 5268 5269 5270 5271 5272 5273 5274 5275 5276 5277 5278 5279 5280 5281 5283 5285 5286 5287 5289 5290 5292 5293 5294 5295 5297 5298 5300
5245 5246 5247 5247 5247 5248 5248 5249 5251 5252 5253 5254 5256 5257 5258 5258 5258 5259 5260 5261 5262 5262 5263 5265 5266 5267 5268 5269 5269 5270 5271 5273 5275 5275 5276 5278 5280 5281 5282 5283 5285 5286 5287 5288
5235 5237 5237 5237 5238 5239 5240 5241 5242 5243 5245 5246 5247 5248 5248 5248 5248 5249 5250 5251 5252 5253 5254 5255 5256 5257 5258 5259 5260 5260 5261 5262 5264 5265 5266 5268 5269 5270 5271 5273 5274 5275 5275 5277
5228 5229 5229 5231 5231 5231 5232 5233 5234 5235 5236 5237 5238 5238 5238 5239 5240 5240 5241 5242 5243 5243 5244 5245 5248 5248 5249 5250 5251 5251 5251 5253 5254 5255 5256 5258 5259 5259 5261 5262 5263 5263 5264 5266
5221 5222 5222 5222 5223 5223 5224 5225 5226 5227 5228 5229 5229 5229 5230 5230 5231 5232 5233 5233 5234 5235 5236 5238 5239 5240 5240 5241 5243 5242 5243 5244 5245 5245 5246 5247 5248 5248 5249 5251 5252 5253 5254 5254
5212 5213 5213 5214 5214 5215 5215 5216 5217 5219 5221 5221 5221 5221 5222 5222 5223 5223 5224 5226 5227 5228 5229 5230 5231 5231 5232 5234 5235 5234 5234 5234 5235 5236 5236 5237 5237 5238 5239 5240 5241 5242 5243 5243
5204 5204 5205 5206 5206 5206 5207 5208 5209 5210 5211 5212 5213 5213 5214 5214 5215 5216 5217 5217 5218 5220 5221 5222 5222 5224 5225 5226 5225 5225 5225 5225 5225 5226 5226 5226 5226 5227 5228 5229 5229 5231 5232 5232
5197 5197 5197 5198 5198 5198 5199 5200 5201 5202 5203 5204 5205 5206 5207 5207 5208 5209 5209 5210 5210 5212 5213 5213 5215 5217 5218 5216 5216 5215 5215 5215 5215 5215 5216 5216 5216 5217 5217 5218 5219 5221 5222 5222
5190 5190 5191 5191 5191 5191 5192 5193 5194 5195 5196 5196 5197 5198 5199 5199 5200 5200 5200 5201 5202 5204 5204 5205 5207 5208 5208 5206 5206 5206 5206 5206 5206 5206 5207 5207 5207 5207 5207 5209 5210 5211 5212 5213
5184 5184 5184 5184 5185 5185 5186 5186 5187 5188 5189 5190 5190 5191 5191 5191 5191 5191 5192 5192 5194 5195 5195 5196 5197 5199 5198 5197 5197 5198 5198 5198 5199 5199 5198 5198 5198 5199 5199 5200 5201 5203 5204 5206
5178 5179 5179 5179 5178 5179 5179 5180 5180 5180 5182 5183 5183 5183 5184 5184 5184 5184 5184 5185 5185 5187 5186 5187 5187 5189 5189 5189 5189 5190 5190 5191 5190 5190 5190 5190 5191 5191 5192 5193 5194 5196 5197 5199
5173 5174 5174 5174 5174 5174 5174 5174 5174 5175 5176 5176 5177 5177 5178 5178 5178 5178 5178 5178 5178 5178 5179 5179 5180 5180 5181 5181 5182 5182 5183 5183 5183 5183 5184 5184 5184 5185 5186 5187 5188 5189 5191 5192